393  
ASUS42 KCHS 240126  
RWRCHS  
 
REGIONAL WEATHER ROUNDUP  
NATIONAL WEATHER SERVICE CHARLESTON SC  
800 PM EST SAT FEB 23 2019  
 
NOTE: "FAIR" INDICATES FEW OR NO CLOUDS BELOW 12,000 FEET WITH NO  
SIGNIFICANT WEATHER AND/OR S TO VISIBILITY
.  
 
NOT ALL STATIONS ARE QUALITY CONTROLLED. USE DATA WITH CAUTION,  
ESPECIALLY DEWPOINT OBSERVATIONS.  
 
SCZ027-030-031-034>040-042>050-240200-   
..SOUTHEAST SOUTH CAROLINA
 
 
 
CITY SKY/WX TMP DP RH WIND PRES REMARKS
 
N CHARLESTON CLOUDY 54 50 86 N6 30.12S  
WATERFRONT PRK N/A 56 54 93 N9 29.98R  
MOUNT PLEASANT CLOUDY 57 54 88 CALM 30.12F  
JOHNS ISLAND CLOUDY 57 55 94 N5 30.13R  
PINOPOLIS N/A 50 50 100 NE5 30.06F  
MONCKS CORNER CLOUDY 52 50 93 N5 30.14R  
SUMMERVILLE CLOUDY 50 48 93 NE3 30.14S  
BEAUFORT MCAS CLOUDY 59 58 96 N7 30.11R  
BEAUFORT ARPT CLOUDY 59 59 100 NE3 30.11R FOG  
HILTON HEAD IS FOG 59 57 94 N5 30.11F VSB 1/4  
WALTERBORO NOT AVBL  
ALLENDALE CLOUDY 50 50 100 CALM 30.12R FOG  
   
..SOUTHERN MIDLANDS AND PEE DEE
 
 
 
CITY SKY/WX TMP DP RH WIND PRES REMARKS
 
GEORGETOWN CLOUDY 52 50 93 CALM 30.15R  
KINGSTREE CLOUDY 46 45 93 N3 30.15R  
ORANGEBURG CLOUDY 47 46 97 NE7 30.13S FOG  
BARNWELL CLOUDY 48 48 100 NE5 30.13S FOG  
AIKEN CLOUDY 45 45 100 NE6 30.14F FOG  
MANNING CLOUDY 46 46 100 NE3 30.15R  
COLUMBIA CLOUDY 46 46 100 NE3 30.13F  
SUMTER CLOUDY 45 45 100 NE6 30.14S  
FLORENCE CLOUDY 46 45 96 N6 30.15S  
MYRTLE BEACH CLOUDY 52 49 89 N8 30.15R  
N MYRTLE BEACH CLOUDY 50 50 100 N7 30.13S  
 

 
 
GAZ063-065-086>088-099>101-113>116-118-119-134>141-150-240200-   
..SOUTHEAST GEORGIA
 
 
 
CITY SKY/WX TMP DP RH WIND PRES REMARKS
 
SAVANNAH ARPT CLOUDY 61 60 97 E5 30.10S FOG  
HUNTER AAF NOT AVBL  
FORT STEWART CLOUDY 61 61 100 NE5 30.07S FOG  
STATESBORO CLOUDY 57 57 97 CALM 30.09F FOG  
SYLVANIA CLOUDY 56 56 99 E5 30.10F FOG  
CLAXTON CLOUDY 64 63 96 E3 30.10R FOG  
   
..CSRA, CENTRAL AND FAR SOUTHEAST GEORGIA
 
 
 
CITY SKY/WX TMP DP RH WIND PRES REMARKS
 
THOMSON CLOUDY 46 46 99 SE7 30.16S FOG  
AUGUSTA-BUSH CLOUDY 50 49 96 NE5 30.12S FOG  
AUGUSTA-DANIEL CLOUDY 49 46 90 NE7 30.12F FOG  
SWAINSBORO FOG 55 55 100 NE5 30.10R VSB 1  
VIDALIA CLOUDY 64 59 82 E6 30.08S  
EASTMAN FAIR 63 61 94 SE5 30.08F  
HAZLEHURST FAIR 68 62 82 CALM 30.06R  
ALMA FAIR 69 67 93 SE3 30.06R  
WAYCROSS FAIR 70 65 84 S3 30.07S  
JESUP CLOUDY 66 63 88 CALM 30.09R  
BAXLEY FAIR 64 64 100 SE3 30.07S  
BRUNSWICK FOG 61 61 100 NE5 30.09S VSB 1/4  
SAINT SIMONS FOG 63 61 93 N5 30.08S VSB 1/4  
 

 
 
SCZ027-028-034-036>038-045-046-048>050-GAZ119-141-240200-   
..LAKE AND SUPPLEMENTAL COASTAL OBSERVATIONS
 
 
 
STATION/POSITION TIME TEMP WIND PRES WAVE SWELL
 
AIR SEA DIR/SP/G HT/PER HT/PER/DIR  
(UTC) (F) (DEG/KT/KT) (MB) (FT/S) (FT/S/D)  
WINYAH BAY 2345 54 360/ 3 1019.0  
LAKE MURRAY 0020 44 10/ 1/ 3 1020.3  
ACE BASIN NERRS 2345 63 CALM 1020.0  
FORT PULASKI 0100 59 59 70/ 5/ 7 1019.5  
SAPELO ISLAND 0000 61 40/ 4 1019.0  
 

 
 
ANZ835-935-AMZ111-154-330-350-352-354-370-450-454-472-240200-   
..C-MAN AND BUOY OBSERVATIONS
 
 
 
STATION/POSITION TIME TEMP WIND PRES WAVE SWELL
 
AIR SEA DIR/SP/G HT/PER HT/PER/DIR  
(UTC) (F) (DEG/KT/KT) (MB) (FT/S) (FT/S/D)  
BUOY 41004 0100 67 60/ 8/ 10 1019.6  
BUOY 41008 0050 60 59 360/ 8/ 10 1018.6F 4/ 7 3/ 80/ 7  
FOLLY BEACH CMAN 0000 55 50/ 9/ 11 1020.2S  
CAPERS NEARSHORE 0108 55 56 30/ 8/ 10 1020.2R  
FRIPP NEARSHORE 0108 57 50/ 10/ 12 1019.1R  
 
 
STATION/POSITION TIME TEMP WIND PRES WAVE SWELL
 
AIR SEA DIR/SP/G HT/PER HT/PER/DIR  
(UTC) (F) (DEG/KT/KT) (MB) (FT/S) (FT/S/D)  
5E ST. MARYS GA 0100 63 N/A 3/ 6  
FRYING PAN BUOY 0100 58 66 350/ 8/ 10 1019.7  
BUOY 41025 NOT AVBL  
CAPE LOOKOUT NC 0000 160/ 11/ 12 1018.9F  
BUOY 41002 NOT AVBL  
BUOY 41010 0100 1021.1  
ST AUGUSTINE FL 0100 65 62 170/ 11/ 11 1018.3F  
 

 
 
 
CLICK HERE TO GO TO PREVIOUS BULLETINS.

The Nexlab SC Page
The Nexlab GA Page Main Text Page